COSMOS 1275 DEB, 12659

Orbit data source: Space-Track

COSMOS 1275 DEB, 12659 is space debris in LEO originally from a launch on Thu, 04 Jun 1981 UTC launched from the Plesetsk Missile And Space Complex (PKMTR). Debris objects in space refer to the collection of defunct objects orbiting the Earth. Examples of debris include non-operational satellites, rocket bodies, and fragments generated from explosions, collisions, or faulty payload assembly.

Loading next visibility...
Identifier
12659, 1981-053P
Orbit
LEO
Country
Flag of CISCIS
Related business
Manufacturer
Unknown
Mission
Spacecraft
Bus & Motor
Unknown
Mass
Unknown
Launch date (UTC)
1981-06-04 (45 years ago)
Launch vehicle
Unknown
Launch site
Plesetsk Missile And Space Complex (PKMTR)
Object type
Payload
Rocket body
Debris
Shape & HBR
Unknown shape, 0.1 m
Radar Cross Section
Medium (>0.1 m² and <1 m²)

Expand to show TLE details & history
Last TLE update: 12 hours ago

TLE from 12 hours ago
0 COSMOS 1275 DEB
1 12659U 81053P   26105.96257274  .00000754  00000-0  59021-3 0  9992
2 12659  82.7377 270.5080 0064042  30.2419  92.8393 13.89911047245947
Epoch: 2026-04-15T23:06Z
TLE epoch observation values (Epoch: 2026-04-15T23:06:06.284Z)
Latitude
55.60363°
Longitude
-110.80597°
Altitude
940.798 km
Speed
7.385 km/s
True Right ascension
05h 19m 20s
True Declination
55° 26' 50"
Sunlit
Object was in daylight at epoch
Visualization orbit readout
Latitude
Unknown
Longitude
Unknown
Altitude
Unknown
Speed
Unknown
Apparent Right ascension
Unknown
Apparent Declination
Unknown
Sunlit
N/A
Visualization observer readout
Local Sidereal Time
17:39:18
Azimuth
Unknown
Elevation
Unknown
Doppler factor
Unknown
Orbital elements
Apogee altitude
972.856 km
Perigee altitude
879.301 km
Semi-major axis
7,304.216 km
Eccentricity
0.0064
Inclination
82.7377°
RAAN
270.508°
Arg. of periapsis
30.2419°
True anomaly
93.57196°
Mean anomaly
92.8393°
Eccentric anomaly
93.20566°
Mean motion
3.47682 °/min
Orbital period
103.54 mins
BSTAR
0.00059021
Loading maneuver chart data...
Computing Atmospheric mass density...
Loading historical data...
Loading historical data...
Loading historical data...
Loading historical data...
Loading historical data...
Loading historical data...
Loading historical data...

Documentation

Showing up to 5 results
|